Museu de l'Esquerda (Osona)





Hora UTC 22:35
Temperatura 22.9 ºC
Humedad 71.0 %
Presión 1015.1 hPa
Pluja 0.0 mm
Velocidad viento 0.0 km/h
Dirección viento N

Datos diarios 2024-07-24



Hora UTC (invierno +1h; verano +2h)
Temperatura (ºC) Humedad (%) Presión (hPa) Velocidad viento (km/h) Precipitación (mm)
Hora UTC Aire Humedad Presión Vel. Dir. Vel. Max Dir. Intent. máx 5 min.
00:05 22.2 71.0 1019.3 3.2 N 3.2 0.0
00:10 22.1 70.0 1019.3 0.0 N 3.2 0.0
00:15 21.9 71.0 1019.3 1.6 N 3.2 0.0
00:20 21.7 72.0 1019.3 3.2 N 3.2 0.0
00:25 21.6 73.0 1019.2 1.6 N 3.2 0.0
00:30 21.4 75.0 1019.1 1.6 N 3.2 0.0
00:35 21.3 77.0 1019.1 1.6 N 3.2 0.0
00:40 21.2 76.0 1019.1 0.0 N 3.2 0.0
00:45 21.1 78.0 1019.1 1.6 N 3.2 0.0
00:50 20.9 78.0 1019.1 1.6 N 3.2 0.0
00:55 20.7 77.0 1019.0 1.6 N 3.2 0.0
01:00 20.7 77.0 1019.0 1.6 N 3.2 0.0
01:05 20.6 77.0 1019.0 0.0 N 3.2 0.0
01:10 20.6 79.0 1018.9 1.6 N 3.2 0.0
01:15 20.4 81.0 1019.0 1.6 N 3.2 0.0
01:20 20.2 81.0 1019.0 1.6 N 3.2 0.0
01:25 20.1 81.0 1019.0 3.2 N 3.2 0.0
01:30 20.0 82.0 1019.0 3.2 N 3.2 0.0
01:35 19.9 82.0 1018.9 1.6 N 3.2 0.0
01:40 19.8 83.0 1018.9 1.6 N 3.2 0.0
01:45 19.7 83.0 1018.9 1.6 N 3.2 0.0
01:50 19.7 83.0 1018.8 0.0 N 1.6 0.0
01:55 19.6 83.0 1018.8 0.0 N 1.6 0.0
02:00 19.5 83.0 1018.7 0.0 N 1.6 0.0
02:05 19.4 84.0 1018.7 0.0 N 1.6 0.0
02:10 19.4 84.0 1018.7 0.0 N 0.0 0.0
02:15 19.3 84.0 1018.6 0.0 N 1.6 0.0
02:20 19.3 84.0 1018.6 0.0 N 1.6 0.0
02:25 19.2 84.0 1018.6 0.0 N 1.6 0.0
02:30 19.2 85.0 1018.5 0.0 N 1.6 0.0
02:35 19.1 85.0 1018.4 3.2 N 3.2 0.0
02:40 19.1 86.0 1018.4 1.6 N 3.2 0.0
02:45 19.0 86.0 1018.4 1.6 N 3.2 0.0
02:50 18.8 86.0 1018.4 1.6 N 3.2 0.0
02:55 18.8 86.0 1018.4 3.2 N 3.2 0.0
03:00 18.7 86.0 1018.3 1.6 N 3.2 0.0
03:05 18.6 86.0 1018.3 1.6 N 3.2 0.0
03:10 18.6 87.0 1018.3 1.6 N 3.2 0.0
03:15 18.5 87.0 1018.2 1.6 N 3.2 0.0
03:20 18.3 86.0 1018.3 3.2 N 3.2 0.0
03:25 18.1 86.0 1018.2 3.2 N 3.2 0.0
03:30 18.0 86.0 1018.3 1.6 N 4.8 0.0
03:35 17.9 86.0 1018.3 1.6 N 4.8 0.0
03:40 17.9 86.0 1018.3 1.6 N 3.2 0.0
03:45 17.9 86.0 1018.3 1.6 N 3.2 0.0
03:50 17.9 87.0 1018.3 1.6 N 3.2 0.0
03:55 17.8 86.0 1018.4 3.2 N 3.2 0.0
04:00 17.7 86.0 1018.3 1.6 N 3.2 0.0
04:05 17.7 86.0 1018.3 1.6 N 3.2 0.0
04:10 17.7 86.0 1018.4 0.0 N 1.6 0.0
04:15 17.7 87.0 1018.3 1.6 N 1.6 0.0
04:20 17.7 87.0 1018.3 1.6 N 3.2 0.0
04:25 17.7 88.0 1018.3 1.6 N 3.2 0.0
04:30 17.6 88.0 1018.4 1.6 N 3.2 0.0
04:35 17.6 88.0 1018.2 3.2 N 3.2 0.0
04:40 17.6 88.0 1018.3 0.0 N 3.2 0.0
04:45 17.5 88.0 1018.2 1.6 N 3.2 0.0
04:50 17.4 88.0 1018.3 1.6 N 3.2 0.0
04:55 17.3 88.0 1018.3 1.6 N 3.2 0.0
05:00 17.3 88.0 1018.3 1.6 N 3.2 0.0
05:05 17.3 88.0 1018.3 0.0 N 3.2 0.0
05:10 17.2 88.0 1018.3 1.6 N 3.2 0.0
05:15 17.2 88.0 1018.4 1.6 N 3.2 0.0
05:20 17.2 88.0 1018.3 0.0 N 3.2 0.0
05:25 17.3 89.0 1018.3 1.6 N 3.2 0.0
05:30 17.3 89.0 1018.4 1.6 N 3.2 0.0
05:35 17.4 89.0 1018.4 3.2 N 3.2 0.0
05:40 17.5 89.0 1018.4 0.0 N 4.8 0.0
05:45 17.6 89.0 1018.4 3.2 N 4.8 0.0
05:50 17.7 89.0 1018.5 1.6 N 4.8 0.0
05:55 17.7 89.0 1018.5 1.6 N 4.8 0.0
06:00 17.8 90.0 1018.4 0.0 N 3.2 0.0
06:05 18.0 89.0 1018.5 0.0 N 3.2 0.0
06:10 18.2 90.0 1018.4 1.6 SE 3.2 0.0
06:15 18.4 89.0 1018.4 0.0 SE 3.2 0.0
06:20 18.7 89.0 1018.3 0.0 SE 3.2 0.0
06:25 18.9 89.0 1018.3 0.0 SE 3.2 0.0
06:30 19.3 89.0 1018.4 0.0 SE 3.2 0.0
06:35 19.7 88.0 1018.4 0.0 SE 1.6 0.0
06:40 20.2 85.0 1018.4 1.6 SE 4.8 0.0
06:45 20.8 82.0 1018.4 0.0 NNE 4.8 0.0
06:50 21.5 79.0 1018.4 1.6 NNE 4.8 0.0
06:55 22.2 77.0 1018.4 0.0 NNE 3.2 0.0
07:00 22.6 76.0 1018.4 1.6 NE 4.8 0.0
07:05 22.9 74.0 1018.3 3.2 ENE 6.4 0.0
07:10 23.2 73.0 1018.4 3.2 ENE 6.4 0.0
07:15 23.4 72.0 1018.2 1.6 ENE 4.8 0.0
07:20 23.7 71.0 1018.2 0.0 E 4.8 0.0
07:25 24.0 70.0 1018.2 1.6 E 3.2 0.0
07:30 24.3 69.0 1018.1 3.2 ESE 4.8 0.0
07:35 24.3 69.0 1018.1 1.6 ESE 4.8 0.0
07:40 24.4 68.0 1018.1 0.0 ESE 4.8 0.0
07:45 25.0 69.0 1018.1 1.6 ESE 3.2 0.0
07:50 25.2 65.0 1018.0 1.6 ESE 3.2 0.0
07:55 25.3 65.0 1018.0 0.0 ESE 3.2 0.0
08:00 25.8 65.0 1017.9 1.6 ESE 3.2 0.0
08:05 26.1 64.0 1017.9 1.6 SSE 4.8 0.0
08:10 26.4 63.0 1017.8 1.6 SSE 4.8 0.0
08:15 26.8 59.0 1017.8 0.0 SSE 3.2 0.0
08:20 27.1 59.0 1017.7 4.8 S 4.8 0.0
08:25 27.3 57.0 1017.6 0.0 S 4.8 0.0
08:30 27.8 58.0 1017.5 1.6 S 4.8 0.0
08:35 28.3 54.0 1017.6 1.6 S 4.8 0.0
08:40 28.8 53.0 1017.5 1.6 S 4.8 0.0
08:45 28.9 50.0 1017.5 3.2 S 4.8 0.0
08:50 29.0 49.0 1017.3 3.2 SSW 8.0 0.0
08:55 29.6 48.0 1017.3 0.0 S 8.0 0.0
09:00 29.4 49.0 1017.2 6.4 SE 11.3 0.0
09:05 29.4 49.0 1017.2 3.2 ESE 6.4 0.0
09:10 29.8 48.0 1017.2 1.6 ENE 8.0 0.0
09:15 29.9 46.0 1017.3 3.2 NNE 8.0 0.0
09:20 30.0 46.0 1017.1 3.2 ESE 6.4 0.0
09:25 29.8 46.0 1017.0 1.6 E 6.4 0.0
09:30 30.8 47.0 1017.0 3.2 SSW 4.8 0.0
09:35 30.9 43.0 1017.0 6.4 SSW 6.4 0.0
09:40 30.9 43.0 1016.8 0.0 SE 6.4 0.0
09:45 30.6 41.0 1016.8 1.6 W 11.3 0.0
09:50 31.2 41.0 1016.7 3.2 S 9.7 0.0
09:55 31.4 41.0 1016.7 4.8 SW 9.7 0.0
10:00 31.7 40.0 1016.7 0.0 SW 11.3 0.0
10:05 31.8 40.0 1016.5 1.6 ESE 8.0 0.0
10:10 32.4 42.0 1016.3 4.8 NNE 8.0 0.0
10:15 31.8 40.0 1016.4 4.8 NNW 9.7 0.0
10:20 31.6 39.0 1016.3 1.6 NNW 9.7 0.0
10:25 31.6 41.0 1016.3 4.8 N 9.7 0.0
10:30 31.2 41.0 1016.1 8.0 NNW 9.7 0.0
10:35 31.9 39.0 1016.1 6.4 SW 12.9 0.0
10:40 32.7 35.0 1016.1 0.0 SW 12.9 0.0
10:45 31.9 38.0 1016.0 3.2 NNE 11.3 0.0
10:50 32.8 37.0 1016.0 4.8 NE 8.0 0.0
10:55 32.7 36.0 1015.8 3.2 NNE 9.7 0.0
11:00 32.9 36.0 1015.7 9.7 NE 9.7 0.0
11:05 33.3 34.0 1015.8 1.6 ENE 9.7 0.0
11:10 33.1 34.0 1015.7 0.0 NNE 9.7 0.0
11:15 33.9 36.0 1015.7 3.2 SE 9.7 0.0
11:20 34.4 34.0 1015.8 12.9 SSE 14.5 0.0
11:25 34.8 35.0 1015.7 6.4 W 12.9 0.0
11:30 35.1 32.0 1015.7 4.8 SW 12.9 0.0
11:35 34.8 32.0 1015.6 3.2 SSE 11.3 0.0
11:40 35.3 32.0 1015.6 4.8 SSW 14.5 0.0
11:45 35.1 33.0 1015.5 3.2 S 12.9 0.0
11:50 34.9 32.0 1015.5 6.4 SSE 14.5 0.0
11:55 34.2 32.0 1015.4 3.2 S 14.5 0.0
12:00 34.3 33.0 1015.2 9.7 SSE 12.9 0.0
12:05 34.8 32.0 1015.3 3.2 S 12.9 0.0
12:10 35.5 32.0 1015.2 11.3 S 17.7 0.0
12:15 35.7 31.0 1015.1 9.7 S 12.9 0.0
12:20 35.3 30.0 1015.1 11.3 SSE 14.5 0.0
12:25 34.2 30.0 1015.1 3.2 N 14.5 0.0
12:30 35.1 31.0 1015.1 12.9 SSW 14.5 0.0
12:35 35.4 30.0 1015.1 12.9 WSW 14.5 0.0
12:40 35.1 31.0 1015.0 3.2 SSW 14.5 0.0
12:45 35.6 29.0 1014.9 9.7 ESE 11.3 0.0
12:50 35.4 29.0 1014.9 8.0 SE 14.5 0.0
12:55 35.2 29.0 1014.8 4.8 SSE 14.5 0.0
13:00 34.9 29.0 1014.7 1.6 NE 11.3 0.0
13:05 35.6 31.0 1014.7 1.6 SE 11.3 0.0
13:10 35.3 30.0 1014.6 1.6 SW 11.3 0.0
13:15 35.9 30.0 1014.6 1.6 S 11.3 0.0
13:20 36.0 31.0 1014.5 0.0 S 8.0 0.0
13:25 36.3 29.0 1014.5 3.2 WSW 9.7 0.0
13:30 36.6 29.0 1014.5 4.8 SW 11.3 0.0
13:35 35.9 38.0 1014.4 11.3 SSE 14.5 0.0
13:40 36.0 39.0 1014.4 4.8 SE 14.5 0.0
13:45 35.6 41.0 1014.3 3.2 SSE 9.7 0.0
13:50 35.2 42.0 1014.2 4.8 S 17.7 0.0
13:55 35.1 43.0 1014.2 3.2 ESE 17.7 0.0
14:00 35.1 42.0 1014.4 3.2 SE 19.3 0.0
14:05 34.8 45.0 1014.3 3.2 ESE 19.3 0.0
14:10 34.9 42.0 1014.3 4.8 N 14.5 0.0
14:15 34.4 44.0 1014.2 0.0 ESE 14.5 0.0
14:20 34.5 45.0 1014.1 1.6 ENE 12.9 0.0
14:25 35.1 43.0 1014.0 1.6 ENE 12.9 0.0
14:30 34.4 46.0 1014.0 3.2 N 22.5 0.0
14:35 34.3 45.0 1014.0 1.6 S 17.7 0.0
14:40 34.4 47.0 1014.0 3.2 SE 14.5 0.0
14:45 34.6 45.0 1014.1 8.0 SSE 22.5 0.0
14:50 34.1 44.0 1014.2 8.0 S 22.5 0.0
14:55 33.2 46.0 1014.1 3.2 E 19.3 0.0
15:00 33.0 46.0 1014.2 8.0 SSE 16.1 0.0
15:05 33.3 46.0 1014.1 8.0 S 16.1 0.0
15:10 33.3 45.0 1014.0 1.6 SE 22.5 0.0
15:15 33.4 42.0 1014.0 16.1 SSE 22.5 0.0
15:20 33.6 42.0 1014.1 6.4 SE 19.3 0.0
15:25 33.6 45.0 1013.9 9.7 SSW 19.3 0.0
15:30 34.1 45.0 1013.9 1.6 NE 14.5 0.0
15:35 33.8 43.0 1014.0 3.2 E 12.9 0.0
15:40 33.4 45.0 1013.9 8.0 NE 11.3 0.0
15:45 33.2 45.0 1013.9 6.4 ENE 14.5 0.0
15:50 33.2 45.0 1013.7 8.0 ENE 14.5 0.0
15:55 32.7 46.0 1013.9 6.4 ESE 14.5 0.0
16:00 32.2 47.0 1013.9 9.7 ESE 14.5 0.0
16:05 32.0 47.0 1013.9 0.0 E 16.1 0.0
16:10 31.7 47.0 1013.9 3.2 E 16.1 0.0
16:15 31.4 48.0 1013.8 6.4 E 17.7 0.0
16:20 31.1 48.0 1013.7 6.4 ENE 17.7 0.0
16:25 31.2 49.0 1013.8 1.6 ESE 16.1 0.0
16:30 31.6 48.0 1013.7 3.2 ESE 12.9 0.0
16:35 31.8 49.0 1013.7 9.7 ENE 12.9 0.0
16:40 31.8 49.0 1013.7 8.0 NE 14.5 0.0
16:45 31.9 48.0 1013.7 3.2 E 14.5 0.0
16:50 31.8 49.0 1013.7 4.8 ENE 14.5 0.0
16:55 31.7 49.0 1013.7 1.6 S 12.9 0.0
17:00 31.7 49.0 1013.7 6.4 E 16.1 0.0
17:05 31.7 50.0 1013.8 3.2 SE 16.1 0.0
17:10 31.6 50.0 1013.8 6.4 SSE 17.7 0.0
17:15 31.4 50.0 1013.8 8.0 SE 17.7 0.0
17:20 31.3 50.0 1013.8 3.2 SE 12.9 0.0
17:25 31.2 51.0 1013.9 3.2 ESE 16.1 0.0
17:30 30.9 51.0 1013.8 11.3 ESE 16.1 0.0
17:35 30.6 51.0 1013.9 3.2 SE 14.5 0.0
17:40 30.4 52.0 1013.9 6.4 ESE 14.5 0.0
17:45 30.3 52.0 1014.0 3.2 E 16.1 0.0
17:50 30.1 53.0 1013.9 3.2 E 16.1 0.0
17:55 29.9 53.0 1014.0 3.2 E 11.3 0.0
18:00 29.8 54.0 1014.0 8.0 SSE 14.5 0.0
18:05 29.7 54.0 1014.0 4.8 ESE 12.9 0.0
18:10 29.5 55.0 1014.2 3.2 ESE 11.3 0.0
18:15 29.3 55.0 1014.1 1.6 ESE 4.8 0.0
18:20 29.1 55.0 1014.2 3.2 ESE 6.4 0.0
18:25 29.1 55.0 1014.3 0.0 ESE 11.3 0.0
18:30 28.9 55.0 1014.3 3.2 E 11.3 0.0
18:35 28.8 56.0 1014.3 1.6 NE 8.0 0.0
18:40 28.6 56.0 1014.4 0.0 E 8.0 0.0
18:45 28.4 56.0 1014.4 1.6 ESE 6.4 0.0
18:50 28.3 56.0 1014.4 1.6 E 12.9 0.0
18:55 28.1 57.0 1014.4 1.6 SE 12.9 0.0
19:00 28.0 57.0 1014.5 1.6 SE 8.0 0.0
19:05 27.9 57.0 1014.5 8.0 SE 11.3 0.0
19:10 27.7 57.0 1014.5 0.0 N 11.3 0.0
19:15 27.7 58.0 1014.6 4.8 N 8.0 0.0
19:20 27.6 58.0 1014.7 1.6 N 8.0 0.0
19:25 27.6 58.0 1014.6 0.0 N 6.4 0.0
19:30 27.4 58.0 1014.7 0.0 N 3.2 0.0
19:35 27.4 59.0 1014.8 3.2 N 6.4 0.0
19:40 27.2 58.0 1014.8 1.6 N 6.4 0.0
19:45 27.1 58.0 1014.8 0.0 N 4.8 0.0
19:50 27.0 56.0 1014.9 3.2 N 4.8 0.0
19:55 26.8 57.0 1014.9 0.0 N 6.4 0.0
20:00 26.8 58.0 1014.9 0.0 N 1.6 0.0
20:05 26.7 57.0 1015.0 0.0 N 1.6 0.0
20:10 26.6 57.0 1015.0 0.0 N 1.6 0.0
20:15 26.4 61.0 1015.0 0.0 N 3.2 0.0
20:20 26.3 62.0 1015.1 0.0 N 3.2 0.0
20:25 26.2 63.0 1015.1 0.0 N 1.6 0.0
20:30 26.1 63.0 1015.0 0.0 N 1.6 0.0
20:35 25.9 63.0 1015.1 0.0 N 0.0 0.0
20:40 25.8 64.0 1015.0 0.0 N 1.6 0.0
20:45 25.7 64.0 1015.1 0.0 N 3.2 0.0
20:50 25.4 65.0 1015.1 0.0 N 3.2 0.0
20:55 25.3 65.0 1015.1 0.0 N 0.0 0.0
21:00 25.1 65.0 1015.0 1.6 N 3.2 0.0
21:05 24.9 65.0 1015.0 1.6 N 6.4 0.0
21:10 24.8 64.0 1015.1 3.2 N 4.8 0.0
21:15 24.6 64.0 1015.1 1.6 N 8.0 0.0
21:20 24.5 65.0 1015.1 3.2 N 8.0 0.0
21:25 24.4 66.0 1015.1 4.8 N 6.4 0.0
21:30 24.3 66.0 1015.1 1.6 N 6.4 0.0
21:35 24.2 67.0 1015.1 1.6 N 3.2 0.0
21:40 24.2 69.0 1015.1 0.0 N 3.2 0.0
21:45 24.1 68.0 1015.1 0.0 N 3.2 0.0
21:50 24.1 69.0 1015.1 0.0 N 3.2 0.0
21:55 23.9 69.0 1015.1 0.0 N 1.6 0.0
22:00 23.8 69.0 1015.2 0.0 N 1.6 0.0
22:05 23.7 70.0 1015.2 0.0 N 1.6 0.0
22:10 23.6 73.0 1015.1 0.0 N 0.0 0.0
22:15 23.4 71.0 1015.1 0.0 N 1.6 0.0
22:20 23.3 72.0 1015.1 0.0 N 0.0 0.0
22:25 23.1 71.0 1015.0 0.0 N 0.0 0.0
22:30 23.0 71.0 1015.0 0.0 N 1.6 0.0
22:35 22.9 71.0 1015.1 0.0 N 1.6 0.0
Máxima 36.6 90.0 1019.3 16.1 SSE 22.5 0.0
Mínima 17.2 29.0 1013.7
Total 0.0